Regional Weather Roundup
Issued by NWS

Home | Current Version | Previous Version | Text Only | Print | Product List | Glossary Off
Versions: 1 2 3 4 5 6 7 8 9 10 11 12 13 14 15 16 17 18 19 20 21 22 23 24 25 26 27 28 29 30 31 32 33 34 35 36 37 38 39 40 41 42 43 44 45 46 47 48 49 50

000
ASUS45 KABQ 251701
RWRNM
NEW MEXICO REGIONAL WEATHER ROUNDUP
NATIONAL WEATHER SERVICE ALBUQUERQUE NM
1100 AM MDT MON MAY 25 2015

NOTE: "FAIR" MEANS FEW OR NO CLOUDS BELOW 12,000 FEET AGL WITH NO
       SIGNIFICANT WEATHER OR OBSTRUCTIONS TO VISION.

      THIS PRODUCT IS RELEASED AS TWO VERSIONS.  ONE VERSION NEAR
      THE TOP OF THE HOUR CONTAINING PRELIMINARY DATA FROM ALBUQUERQUE
      AND OTHER STATIONS.  A FINAL VERSION WITH ADDITIONAL DATA IS
      ISSUED ABOUT 10 MINUTES AFTER THE HOUR.

NMZ501-503-504-510>518-251800-
NORTHWEST PLATEAU/NORTHCENTRAL MOUNTAINS

CITY           SKY/WX    TMP DP  RH WIND       PRES   REMARKS
FARMINGTON     PTSUNNY   59  42  53 W6        30.01S
SANTA FE       MOSUNNY   61  37  41 W10G16    29.99F
TAOS           CLOUDY    55  34  44 N3        30.04F

$$
NMZ402-403-502-505>509-251800-
WESTCENTRAL MOUNTAINS/SOUTHWEST MOUNTAINS

CITY           SKY/WX    TMP DP  RH WIND       PRES   REMARKS
GALLUP         CLOUDY    55  39  54 SW14      30.07S
SILVER CITY      N/A     66  25  20 NW12G20   30.07S

$$
NMZ407-409-411-412-251800-
SOUTHERN DESERTS

CITY           SKY/WX    TMP DP  RH WIND       PRES   REMARKS
DEMING         SUNNY     72  32  23 SW10G20   30.01F
ALAMOGORDO     SUNNY     70  34  26 E5        29.97F
T OR C         SUNNY     69  35  28 W8        29.98F

$$
NMZ519>523-251800-
CENTRAL VALLEYS/CENTRAL HIGHLANDS

CITY           SKY/WX    TMP DP  RH WIND       PRES   REMARKS
ALBUQUERQUE    MOSUNNY   61  43  51 VRB3      30.00F
DOUBLE EAGLE   MOSUNNY   59  43  55 W8        30.02F
CLINES CORNERS SUNNY     60  35  39 NW29G41   29.97F
BELEN          FAIR      65  42  43 NW7       29.99F
SOCORRO        NOT AVBL

$$
NMZ524>526-539-540-251800-
SOUTHCENTRAL MOUNTAINS

CITY           SKY/WX    TMP DP  RH WIND       PRES   REMARKS
RUIDOSO        NOT AVBL

$$
NMZ527>531-251800-
NORTHEAST HIGHLANDS/NORTHEAST PLAINS

CITY           SKY/WX    TMP DP  RH WIND       PRES   REMARKS
LAS VEGAS      SUNNY     60  33  36 E9G16     29.96R
RATON          SUNNY     66  30  26 VRB5      29.91R
CLAYTON        PTSUNNY   66  41  40 E10       29.91S

$$
NMZ532>537-251800-
EASTCENTRAL PLAINS

CITY           SKY/WX    TMP DP  RH WIND       PRES   REMARKS
TUCUMCARI      MOSUNNY   71  45  39 SW10      29.87S
CANNON AFB     NOT AVBL
CLOVIS AIRPORT CLOUDY    63  46  55 SE14      29.93R

$$
NMZ028-029-538-251800-
SOUTHEAST PLAINS

CITY           SKY/WX    TMP DP  RH WIND       PRES   REMARKS
ROSWELL        SUNNY     75  41  29 VRB6      29.92R
ARTESIA        SUNNY     77  36  22 SE8       29.92S
CARLSBAD       SUNNY     79  39  23 E9        29.90S
HOBBS          SUNNY     68  46  45 E6        29.97R


$$



USA.gov is the U.S. government's official web portal to all federal, state and local government web resources and services.